{"data":{"norad_id":62794,"epoch":"2026-09-22T21:56:15.794880Z","epoch_age_seconds":109557,"freshness":"FRESH","line1":"1 62794U 25016K   26265.91407170  .00000056  00000+0  67961-4 0  9995","line2":"2 62794  88.9661  73.4889 0012533 236.3354 123.6602 13.51027816 85633","mean_motion":13.51027816,"eccentricity":0.0012533,"inclination_deg":88.9661,"raan_deg":73.4889,"arg_perigee_deg":236.3354,"mean_anomaly_deg":123.6602,"bstar":6.7961e-5,"rev_number":8563,"period_min":106.5855182955,"perigee_km":1059.146528081,"apogee_km":1077.81221668,"semimajor_km":7446.6163723805,"source":"CELESTRAK","updated_at":"2026-09-23T09:00:21.635735Z"}}